Hourly Weather Roundup
Issued by NWS Central Illinois

Home | Current Version | Previous Version | Text Only | Print | Product List | Glossary On
Versions: 1 2 3 4 5 6 7 8 9 10 11 12 13 14 15 16 17 18 19 20 21 22 23 24 25 26 27 28 29 30 31 32 33 34 35 36 37 38 39 40 41 42 43 44 45 46 47 48 49 50
000
NZUS43 KILX 052110
HWRILX

AREA WEATHER ROUNDUP
NATIONAL WEATHER SERVICE, LINCOLN IL
400 PM CDT SUN JUL 05 2015


CITY           SKY/WX    TMP DP  RH WIND       PRES   REMARKS
BLOOMINGTON    MOSUNNY   82  65  56 S10       30.07F HX  84
CHAMPAIGN      PTSUNNY   82  65  56 SW6       30.06F HX  84
DANVILLE       MOSUNNY   81  66  60 CALM      30.04F HX  83
DECATUR        PTSUNNY   82  64  54 SE10      30.06R HX  83
EFFINGHAM      MOSUNNY   82  62  49 SE3       30.07S HX  83
FLORA          SUNNY     82  67  60 S3        30.05F HX  84
GALESBURG      MOSUNNY   82  66  59 S10       30.03S HX  84
JACKSONVILLE   PTSUNNY   84  69  59 SE8       30.03F HX  88
LACON          SUNNY     82  63  52 S8        30.03S HX  83
LAWRENCEVILLE  SUNNY     83  69  62 S7        30.06S HX  86
LITCHFIELD     MOSUNNY   82  65  56 S6        30.05S HX  83
$$


CITY           SKY/WX    TMP DP  RH WIND       PRES   REMARKS
LINCOLN        MOSUNNY   84  65  51 S8        30.04S HX  86
MACOMB         MOSUNNY   82  69  65 S7        30.03F HX  85
MATTOON        MOSUNNY   82  67  60 VRB3      30.05F HX  84
MT CARMEL AP   SUNNY     86  68  54 SE6       30.05S HX  89
OLNEY-NOBLE AP MOSUNNY   82  66  57 CALM      30.05F HX  85
PARIS          PTSUNNY   83  65  55 CALM      30.06F HX  85
PEORIA         SUNNY     84  64  50 S7        30.03F HX  85
PONTIAC        SUNNY     82  65  58 S6        30.06S HX  83
RANTOUL        SUNNY     82  63  51 S3        30.06S HX  83
ROBINSON       PTSUNNY   84  67  56 NE3       30.06S HX  86
SPRINGFIELD    SUNNY     84  66  54 S8        30.04S HX  86
TAYLORVILLE    MOSUNNY   81  64  57 S3        30.05S HX  82
$$

...REGIONAL REPORTS...


CITY           SKY/WX    TMP DP  RH WIND       PRES   REMARKS
CHICAGO O`HARE MOSUNNY   82  59  45 S9        30.04S HX  82
KANKAKEE       SUNNY     83  64  52 S3        30.06F HX  84
MOLINE         MOSUNNY   83  65  54 S10       30.00F HX  85
MOUNT STERLING NOT AVBL
MOUNT VERNON   SUNNY     86  64  48 S6        30.06F HX  87
PITTSFIELD     SUNNY     84  70  62 SE7       30.03F HX  88
QUINCY         MOSUNNY   85  67  54 S10       30.00F HX  87
ROCKFORD       MOSUNNY   82  64  54 S12       30.05S HX  83
$$


CITY           SKY/WX    TMP DP  RH WIND       PRES   REMARKS
BURLINGTON     PTSUNNY   84  71  65 S12       30.00S HX  89
CEDAR RAPIDS   CLOUDY    82  68  62 S13G20    29.98F HX  85
DES MOINES     PTSUNNY   87  68  52 S14       29.92F HX  90
KIRKSVILLE     PTSUNNY   83  68  60 S9        29.99F HX  86
OTTUMWA        PTSUNNY   84  69  60 S12       29.96S HX  88
ST LOUIS       MOSUNNY   89  64  43 S10       30.03F HX  90
$$


CITY           SKY/WX    TMP DP  RH WIND       PRES   REMARKS
TERRE HAUTE    PTSUNNY   84  64  50 NE3       30.06S HX  85
EVANSVILLE     MOSUNNY   83  68  60 E5        30.06S HX  86
INDIANAPOLIS   CLOUDY    79  61  53 SE10      30.07S HX  80
LAFAYETTE      SUNNY     82  60  47 CALM      30.06F HX  82
MADISON        MOSUNNY   82  62  50 S13       30.01F HX  83
MILWAUKEE      MOSUNNY   78  60  53 SE16      30.04S
$$





USA.gov is the U.S. government's official web portal to all federal, state and local government web resources and services.